Temp: 9.4°C   Baro: 1013.7mb
  Wind: 0.0mph   Dir: SW (217°)
  Rain: 0.0mm (0.0mm/hr)
  Solar: 9W/m2  Hum: 95%
 
Bath Spa Weather Historical Data
Daily Summary for January 13, 2019 Units:  Metric    English   Both
Next Day »
Daily Weekly Monthly Yearly Custom
  High: Low: Average:
Temperature: 11.0 °C 8.1 °C 9.5 °C
Dew Point: 8.3 °C 3.6 °C 7.3 °C
Humidity: 91% 70% 86%
Wind Speed: 38.6km/h 0.0km/h 14.7km/h
Wind Gust: 45.1km/h - -
Wind direction- - WNW
Pressure: 1021.2 hPa 1013.1 hPa -
Precipitation: 0.0 mm    
Historical Graphs
 
 
Tabular Data for January 13, 2019
Time Temperature Dew Point Pressure Wind direction Wind Speed Wind Gust Humidity Rainfall Rate (Hourly) solar
00:04 9.3 °C 7.7 °C 1020.9 hPa WNW 7.9 km/h 12.9 km/h 90% 0.0 mm 0.00 W/m2
00:09 9.3 °C 7.7 °C 1021.2 hPa West 4.7 km/h 14.5 km/h 90% 0.0 mm 0.00 W/m2
00:14 9.4 °C 7.8 °C 1020.9 hPa West 11.1 km/h 19.3 km/h 90% 0.0 mm 0.00 W/m2
00:19 9.3 °C 7.7 °C 1020.9 hPa West 11.1 km/h 16.1 km/h 90% 0.0 mm 0.00 W/m2
00:24 9.4 °C 7.8 °C 1020.9 hPa West 7.9 km/h 20.9 km/h 90% 0.0 mm 0.00 W/m2
00:29 9.4 °C 7.8 °C 1020.9 hPa West 13.0 km/h 25.7 km/h 90% 0.0 mm 0.00 W/m2
00:34 9.4 °C 7.8 °C 1020.5 hPa WSW 13.0 km/h 27.4 km/h 90% 0.0 mm 0.00 W/m2
00:39 9.4 °C 7.8 °C 1020.5 hPa WNW 11.1 km/h 24.1 km/h 90% 0.0 mm 0.00 W/m2
00:44 9.3 °C 7.7 °C 1020.5 hPa West 9.7 km/h 19.3 km/h 90% 0.0 mm 0.00 W/m2
00:49 9.3 °C 7.7 °C 1020.5 hPa WNW 17.7 km/h 30.6 km/h 90% 0.0 mm 0.00 W/m2
00:54 9.3 °C 7.7 °C 1020.5 hPa West 16.3 km/h 22.5 km/h 90% 0.0 mm 0.00 W/m2
00:59 9.3 °C 7.9 °C 1020.5 hPa NW 9.7 km/h 24.1 km/h 91% 0.0 mm 0.00 W/m2
01:04 9.3 °C 7.9 °C 1020.5 hPa West 29.0 km/h 29.0 km/h 91% 0.0 mm 0.00 W/m2
01:09 9.3 °C 7.7 °C 1020.2 hPa WNW 30.6 km/h 30.6 km/h 90% 0.0 mm 0.00 W/m2
01:14 9.3 °C 7.7 °C 1020.2 hPa West 14.3 km/h 27.4 km/h 90% 0.0 mm 0.00 W/m2
01:19 9.3 °C 7.7 °C 1020.2 hPa WNW 14.3 km/h 22.5 km/h 90% 0.0 mm 0.00 W/m2
01:24 9.3 °C 7.9 °C 1020.2 hPa WNW 20.9 km/h 27.4 km/h 91% 0.0 mm 0.00 W/m2
01:29 9.3 °C 7.9 °C 1019.9 hPa West 13.0 km/h 24.1 km/h 91% 0.0 mm 0.00 W/m2
01:34 9.4 °C 8.0 °C 1020.2 hPa West 13.0 km/h 25.7 km/h 91% 0.0 mm 0.00 W/m2
01:39 9.4 °C 8.0 °C 1019.9 hPa WNW 13.0 km/h 22.5 km/h 91% 0.0 mm 0.00 W/m2
01:44 9.4 °C 8.0 °C 1020.2 hPa NW 17.7 km/h 22.5 km/h 91% 0.0 mm 0.00 W/m2
01:49 9.4 °C 8.0 °C 1020.2 hPa WNW 14.3 km/h 22.5 km/h 91% 0.0 mm 0.00 W/m2
01:54 9.4 °C 8.0 °C 1020.2 hPa West 4.7 km/h 20.9 km/h 91% 0.0 mm 0.00 W/m2
01:59 9.4 °C 8.0 °C 1020.2 hPa WNW 24.1 km/h 24.1 km/h 91% 0.0 mm 0.00 W/m2
02:04 9.4 °C 8.0 °C 1020.2 hPa WNW 17.7 km/h 19.3 km/h 91% 0.0 mm 0.00 W/m2
02:09 9.4 °C 8.0 °C 1020.2 hPa West 9.7 km/h 17.7 km/h 91% 0.0 mm 0.00 W/m2
02:14 9.4 °C 8.0 °C 1020.2 hPa West 9.7 km/h 25.7 km/h 91% 0.0 mm 0.00 W/m2
02:19 9.4 °C 8.0 °C 1019.9 hPa West 19.5 km/h 22.5 km/h 91% 0.0 mm 0.00 W/m2
02:24 9.5 °C 8.1 °C 1020.2 hPa WNW 11.1 km/h 19.3 km/h 91% 0.0 mm 0.00 W/m2
02:29 9.4 °C 8.0 °C 1019.9 hPa WNW 13.0 km/h 20.9 km/h 91% 0.0 mm 0.00 W/m2
02:34 9.4 °C 8.0 °C 1019.9 hPa West 13.0 km/h 19.3 km/h 91% 0.0 mm 0.00 W/m2
02:39 9.4 °C 8.0 °C 1019.9 hPa West 14.3 km/h 14.5 km/h 91% 0.0 mm 0.00 W/m2
02:44 9.4 °C 8.0 °C 1019.9 hPa West 4.7 km/h 14.5 km/h 91% 0.0 mm 0.00 W/m2
02:49 9.5 °C 8.1 °C 1019.9 hPa West 16.3 km/h 19.3 km/h 91% 0.0 mm 0.00 W/m2
02:54 9.4 °C 8.0 °C 1019.9 hPa West 14.3 km/h 25.7 km/h 91% 0.0 mm 0.00 W/m2
02:59 9.4 °C 8.0 °C 1019.9 hPa West 9.7 km/h 19.3 km/h 91% 0.0 mm 0.00 W/m2
03:04 9.5 °C 8.1 °C 1019.9 hPa WSW 6.4 km/h 20.9 km/h 91% 0.0 mm 0.00 W/m2
03:09 9.4 °C 8.0 °C 1019.9 hPa WNW 11.1 km/h 27.4 km/h 91% 0.0 mm 0.00 W/m2
03:14 9.4 °C 8.0 °C 1019.9 hPa West 13.0 km/h 22.5 km/h 91% 0.0 mm 0.00 W/m2
03:19 9.4 °C 8.0 °C 1019.9 hPa WNW 13.0 km/h 22.5 km/h 91% 0.0 mm 0.00 W/m2
03:24 9.4 °C 8.0 °C 1019.9 hPa WNW 9.7 km/h 12.9 km/h 91% 0.0 mm 0.00 W/m2
03:29 9.5 °C 8.1 °C 1019.9 hPa WNW 16.3 km/h 25.7 km/h 91% 0.0 mm 0.00 W/m2
03:34 9.5 °C 8.1 °C 1019.9 hPa West 14.3 km/h 20.9 km/h 91% 0.0 mm 0.00 W/m2
03:39 9.5 °C 8.1 °C 1019.5 hPa WNW 24.1 km/h 24.1 km/h 91% 0.0 mm 0.00 W/m2
03:44 9.5 °C 8.1 °C 1019.5 hPa WNW 9.7 km/h 20.9 km/h 91% 0.0 mm 0.00 W/m2
03:49 9.5 °C 8.1 °C 1019.5 hPa West 6.4 km/h 16.1 km/h 91% 0.0 mm 0.00 W/m2
03:54 9.5 °C 8.1 °C 1019.5 hPa West 1.4 km/h 8.0 km/h 91% 0.0 mm 0.00 W/m2
03:59 9.5 °C 8.1 °C 1019.5 hPa West 6.4 km/h 19.3 km/h 91% 0.0 mm 0.00 W/m2
04:04 9.6 °C 8.2 °C 1019.2 hPa WNW 6.4 km/h 19.3 km/h 91% 0.0 mm 0.00 W/m2
04:09 9.7 °C 8.1 °C 1019.2 hPa WSW 4.7 km/h 20.9 km/h 90% 0.0 mm 0.00 W/m2
04:14 9.7 °C 8.1 °C 1019.2 hPa WNW 13.0 km/h 25.7 km/h 90% 0.0 mm 0.00 W/m2
04:19 9.7 °C 8.1 °C 1019.2 hPa West 9.7 km/h 14.5 km/h 90% 0.0 mm 0.00 W/m2
04:24 9.7 °C 8.1 °C 1019.2 hPa NW 3.2 km/h 24.1 km/h 90% 0.0 mm 0.00 W/m2
04:29 9.7 °C 8.1 °C 1019.2 hPa WNW 11.1 km/h 20.9 km/h 90% 0.0 mm 0.00 W/m2
04:34 9.6 °C 8.0 °C 1019.2 hPa West 17.7 km/h 19.3 km/h 90% 0.0 mm 0.00 W/m2
04:39 9.5 °C 7.9 °C 1019.2 hPa West 9.7 km/h 19.3 km/h 90% 0.0 mm 0.00 W/m2
04:41 9.5 °C 7.9 °C 1019.2 hPa WNW 25.7 km/h 25.7 km/h 90% 0.0 mm 0.00 W/m2
04:46 9.5 °C 7.9 °C 1019.2 hPa WNW 35.4 km/h 35.4 km/h 90% 0.0 mm 0.00 W/m2
04:54 9.5 °C 7.9 °C 1019.2 hPa WNW 13.0 km/h 22.5 km/h 90% 0.0 mm 0.00 W/m2
04:59 9.5 °C 7.9 °C 1019.2 hPa West 11.1 km/h 27.4 km/h 90% 0.0 mm 0.00 W/m2
05:04 9.5 °C 7.9 °C 1019.2 hPa West 17.7 km/h 20.9 km/h 90% 0.0 mm 0.00 W/m2
05:09 9.5 °C 7.9 °C 1019.2 hPa West 17.7 km/h 22.5 km/h 90% 0.0 mm 0.00 W/m2
05:14 9.5 °C 7.9 °C 1018.8 hPa WSW 13.0 km/h 19.3 km/h 90% 0.0 mm 0.00 W/m2
05:19 9.5 °C 7.9 °C 1018.8 hPa WNW 7.9 km/h 20.9 km/h 90% 0.0 mm 0.00 W/m2
05:24 9.5 °C 7.9 °C 1018.8 hPa WNW 14.3 km/h 25.7 km/h 90% 0.0 mm 0.00 W/m2
05:29 9.5 °C 7.9 °C 1018.8 hPa West 11.1 km/h 22.5 km/h 90% 0.0 mm 0.00 W/m2
05:34 9.5 °C 7.9 °C 1018.8 hPa West 13.0 km/h 22.5 km/h 90% 0.0 mm 0.00 W/m2
05:39 9.5 °C 7.8 °C 1018.8 hPa WSW 9.7 km/h 27.4 km/h 89% 0.0 mm 0.00 W/m2
05:44 9.5 °C 7.8 °C 1018.5 hPa West 29.0 km/h 29.0 km/h 89% 0.0 mm 0.00 W/m2
05:49 9.5 °C 7.8 °C 1018.5 hPa West 13.0 km/h 24.1 km/h 89% 0.0 mm 0.00 W/m2
05:54 9.4 °C 7.7 °C 1018.5 hPa West 6.4 km/h 20.9 km/h 89% 0.0 mm 0.00 W/m2
05:59 9.4 °C 7.7 °C 1018.2 hPa West 22.7 km/h 22.5 km/h 89% 0.0 mm 0.00 W/m2
06:04 9.3 °C 7.6 °C 1018.2 hPa WNW 19.5 km/h 27.4 km/h 89% 0.0 mm 0.00 W/m2
06:09 9.4 °C 7.7 °C 1018.2 hPa NW 19.5 km/h 41.8 km/h 89% 0.0 mm 0.00 W/m2
06:14 9.3 °C 7.6 °C 1017.8 hPa West 7.9 km/h 25.7 km/h 89% 0.0 mm 0.00 W/m2
06:19 9.3 °C 7.6 °C 1017.8 hPa WSW 25.9 km/h 33.8 km/h 89% 0.0 mm 0.00 W/m2
06:24 9.3 °C 7.6 °C 1018.2 hPa WNW 22.7 km/h 33.8 km/h 89% 0.0 mm 0.00 W/m2
06:29 9.3 °C 7.4 °C 1018.2 hPa WNW 13.0 km/h 20.9 km/h 88% 0.0 mm 0.00 W/m2
06:34 9.3 °C 7.6 °C 1018.2 hPa WNW 20.9 km/h 25.7 km/h 89% 0.0 mm 0.00 W/m2
06:39 9.4 °C 7.7 °C 1018.2 hPa West 7.9 km/h 29.0 km/h 89% 0.0 mm 0.00 W/m2
06:44 9.3 °C 7.6 °C 1018.2 hPa West 9.7 km/h 32.2 km/h 89% 0.0 mm 0.00 W/m2
06:49 9.3 °C 7.6 °C 1018.2 hPa NNW 17.7 km/h 24.1 km/h 89% 0.0 mm 0.00 W/m2
06:54 9.3 °C 7.4 °C 1018.2 hPa West 22.7 km/h 32.2 km/h 88% 0.0 mm 0.00 W/m2
06:59 9.3 °C 7.4 °C 1018.2 hPa WNW 9.7 km/h 25.7 km/h 88% 0.0 mm 0.00 W/m2
07:04 9.3 °C 7.4 °C 1018.2 hPa WNW 14.3 km/h 27.4 km/h 88% 0.0 mm 0.00 W/m2
07:09 9.3 °C 7.4 °C 1018.2 hPa North 14.3 km/h 29.0 km/h 88% 0.0 mm 0.00 W/m2
07:14 9.3 °C 7.4 °C 1017.8 hPa WNW 17.7 km/h 22.5 km/h 88% 0.0 mm 0.00 W/m2
07:19 9.2 °C 7.3 °C 1017.8 hPa WNW 11.1 km/h 20.9 km/h 88% 0.0 mm 0.00 W/m2
07:24 9.2 °C 7.3 °C 1017.8 hPa NW 17.7 km/h 20.9 km/h 88% 0.0 mm 0.00 W/m2
07:29 9.3 °C 7.4 °C 1017.8 hPa WNW 22.7 km/h 27.4 km/h 88% 0.0 mm 0.00 W/m2
07:34 9.3 °C 7.4 °C 1017.8 hPa WNW 14.3 km/h 25.7 km/h 88% 0.0 mm 0.00 W/m2
07:39 9.3 °C 7.4 °C 1017.8 hPa WNW 30.6 km/h 30.6 km/h 88% 0.0 mm 0.00 W/m2
07:44 9.3 °C 7.4 °C 1017.8 hPa West 9.7 km/h 20.9 km/h 88% 0.0 mm 0.00 W/m2
07:49 9.3 °C 7.4 °C 1017.8 hPa NW 19.5 km/h 25.7 km/h 88% 0.0 mm 0.00 W/m2
07:54 9.3 °C 7.4 °C 1017.8 hPa WNW 13.0 km/h 25.7 km/h 88% 0.0 mm 0.00 W/m2
07:59 9.3 °C 7.4 °C 1017.8 hPa NW 14.3 km/h 22.5 km/h 88% 0.0 mm 0.00 W/m2
08:04 9.3 °C 7.4 °C 1017.8 hPa West 16.3 km/h 24.1 km/h 88% 0.0 mm 0.00 W/m2
08:09 9.3 °C 7.4 °C 1017.8 hPa West 7.9 km/h 20.9 km/h 88% 0.0 mm 0.00 W/m2
08:14 9.3 °C 7.4 °C 1017.8 hPa West 14.3 km/h 19.3 km/h 88% 0.0 mm 0.00 W/m2
08:19 9.3 °C 7.4 °C 1017.8 hPa WNW 16.3 km/h 22.5 km/h 88% 0.0 mm 0.00 W/m2
08:24 9.3 °C 7.4 °C 1017.8 hPa West 22.7 km/h 27.4 km/h 88% 0.0 mm 0.00 W/m2
08:29 9.3 °C 7.2 °C 1017.8 hPa West 9.7 km/h 22.5 km/h 87% 0.0 mm 0.00 W/m2
08:34 9.3 °C 7.2 °C 1017.8 hPa WNW 4.7 km/h 27.4 km/h 87% 0.0 mm 0.00 W/m2
08:39 9.3 °C 7.4 °C 1017.8 hPa West 14.3 km/h 25.7 km/h 88% 0.0 mm 0.00 W/m2
08:44 9.3 °C 7.4 °C 1017.8 hPa WNW 30.6 km/h 30.6 km/h 88% 0.0 mm 5.00 W/m2
08:49 9.3 °C 7.4 °C 1017.5 hPa WNW 17.7 km/h 29.0 km/h 88% 0.0 mm 7.00 W/m2
08:54 9.3 °C 7.4 °C 1017.5 hPa NW 13.0 km/h 27.4 km/h 88% 0.0 mm 11.00 W/m2
08:59 9.2 °C 7.3 °C 1017.2 hPa WNW 13.0 km/h 29.0 km/h 88% 0.0 mm 12.00 W/m2
09:04 9.2 °C 7.3 °C 1017.2 hPa WNW 9.7 km/h 29.0 km/h 88% 0.0 mm 21.00 W/m2
09:09 9.3 °C 7.4 °C 1017.2 hPa NW 19.5 km/h 32.2 km/h 88% 0.0 mm 30.00 W/m2
09:14 9.3 °C 7.4 °C 1017.2 hPa WNW 13.0 km/h 35.4 km/h 88% 0.0 mm 42.00 W/m2
09:19 9.3 °C 7.2 °C 1017.2 hPa WNW 19.5 km/h 38.6 km/h 87% 0.0 mm 47.00 W/m2
09:24 9.4 °C 7.3 °C 1017.2 hPa West 20.9 km/h 30.6 km/h 87% 0.0 mm 47.00 W/m2
09:29 9.4 °C 7.3 °C 1017.2 hPa West 20.9 km/h 29.0 km/h 87% 0.0 mm 30.00 W/m2
09:34 9.4 °C 7.3 °C 1016.8 hPa NW 35.4 km/h 35.4 km/h 87% 0.0 mm 25.00 W/m2
09:39 9.4 °C 7.3 °C 1016.8 hPa WNW 27.4 km/h 33.8 km/h 87% 0.0 mm 33.00 W/m2
09:44 9.4 °C 7.3 °C 1017.2 hPa NW 14.3 km/h 32.2 km/h 87% 0.0 mm 47.00 W/m2
09:49 9.4 °C 7.3 °C 1017.2 hPa NW 17.7 km/h 35.4 km/h 87% 0.0 mm 42.00 W/m2
09:54 9.5 °C 7.4 °C 1017.2 hPa NW 9.7 km/h 25.7 km/h 87% 0.0 mm 39.00 W/m2
09:59 9.5 °C 7.4 °C 1017.2 hPa WNW 16.3 km/h 24.1 km/h 87% 0.0 mm 40.00 W/m2
10:04 9.5 °C 7.4 °C 1017.2 hPa WNW 19.5 km/h 25.7 km/h 87% 0.0 mm 35.00 W/m2
10:09 9.5 °C 7.4 °C 1017.2 hPa West 25.9 km/h 32.2 km/h 87% 0.0 mm 42.00 W/m2
10:14 9.6 °C 7.5 °C 1017.5 hPa WNW 19.5 km/h 33.8 km/h 87% 0.0 mm 39.00 W/m2
10:19 9.7 °C 7.6 °C 1017.5 hPa WNW 13.0 km/h 22.5 km/h 87% 0.0 mm 44.00 W/m2
10:24 9.7 °C 7.6 °C 1017.2 hPa West 33.8 km/h 33.8 km/h 87% 0.0 mm 47.00 W/m2
10:29 9.7 °C 7.6 °C 1017.2 hPa West 17.7 km/h 29.0 km/h 87% 0.0 mm 33.00 W/m2
10:34 9.7 °C 7.6 °C 1017.2 hPa NNW 25.9 km/h 25.7 km/h 87% 0.0 mm 32.00 W/m2
10:39 9.7 °C 7.6 °C 1016.8 hPa WNW 16.3 km/h 35.4 km/h 87% 0.0 mm 35.00 W/m2
10:44 9.7 °C 7.6 °C 1016.8 hPa WNW 14.3 km/h 33.8 km/h 87% 0.0 mm 30.00 W/m2
10:49 9.7 °C 7.6 °C 1016.8 hPa West 28.8 km/h 30.6 km/h 87% 0.0 mm 28.00 W/m2
10:54 9.7 °C 7.6 °C 1016.5 hPa WNW 14.3 km/h 27.4 km/h 87% 0.0 mm 25.00 W/m2
10:59 9.6 °C 7.5 °C 1016.8 hPa WNW 16.3 km/h 25.7 km/h 87% 0.0 mm 25.00 W/m2
11:04 9.7 °C 7.6 °C 1016.5 hPa WNW 7.9 km/h 27.4 km/h 87% 0.0 mm 21.00 W/m2
11:09 9.6 °C 7.5 °C 1016.5 hPa WNW 16.3 km/h 25.7 km/h 87% 0.0 mm 19.00 W/m2
11:14 9.7 °C 7.6 °C 1016.8 hPa NW 17.7 km/h 30.6 km/h 87% 0.0 mm 23.00 W/m2
11:19 9.7 °C 7.8 °C 1016.8 hPa NW 19.5 km/h 40.2 km/h 88% 0.0 mm 35.00 W/m2
11:24 9.6 °C 7.7 °C 1016.5 hPa West 24.1 km/h 32.2 km/h 88% 0.0 mm 39.00 W/m2
11:29 9.7 °C 7.8 °C 1016.1 hPa NW 19.5 km/h 19.3 km/h 88% 0.0 mm 44.00 W/m2
11:34 9.7 °C 7.8 °C 1016.1 hPa West 9.7 km/h 45.1 km/h 88% 0.0 mm 39.00 W/m2
11:39 9.7 °C 7.8 °C 1016.1 hPa NW 16.3 km/h 22.5 km/h 88% 0.0 mm 42.00 W/m2
11:44 9.7 °C 7.8 °C 1016.1 hPa WNW 24.1 km/h 35.4 km/h 88% 0.0 mm 37.00 W/m2
11:49 9.7 °C 7.8 °C 1016.1 hPa NNW 13.0 km/h 38.6 km/h 88% 0.0 mm 30.00 W/m2
11:54 9.7 °C 7.8 °C 1015.8 hPa NW 11.1 km/h 20.9 km/h 88% 0.0 mm 28.00 W/m2
11:59 9.7 °C 7.8 °C 1015.8 hPa WNW 16.3 km/h 33.8 km/h 88% 0.0 mm 30.00 W/m2
12:04 9.7 °C 7.8 °C 1015.8 hPa NW 19.5 km/h 27.4 km/h 88% 0.0 mm 30.00 W/m2
12:09 9.7 °C 7.8 °C 1015.5 hPa WNW 19.5 km/h 27.4 km/h 88% 0.0 mm 33.00 W/m2
12:14 9.7 °C 7.8 °C 1015.5 hPa WNW 9.7 km/h 30.6 km/h 88% 0.0 mm 37.00 W/m2
12:19 9.8 °C 7.7 °C 1015.5 hPa NW 32.2 km/h 32.2 km/h 87% 0.0 mm 33.00 W/m2
12:24 9.8 °C 7.7 °C 1015.5 hPa NW 17.7 km/h 33.8 km/h 87% 0.0 mm 39.00 W/m2
12:29 9.8 °C 7.7 °C 1015.5 hPa WNW 14.3 km/h 35.4 km/h 87% 0.0 mm 40.00 W/m2
12:34 9.8 °C 7.7 °C 1015.1 hPa NW 11.1 km/h 37.0 km/h 87% 0.0 mm 39.00 W/m2
12:39 9.8 °C 7.7 °C 1015.1 hPa NW 16.3 km/h 35.4 km/h 87% 0.0 mm 28.00 W/m2
12:44 9.8 °C 7.9 °C 1015.1 hPa WNW 7.9 km/h 25.7 km/h 88% 0.0 mm 28.00 W/m2
12:49 9.7 °C 7.8 °C 1015.1 hPa WNW 28.8 km/h 33.8 km/h 88% 0.0 mm 21.00 W/m2
12:54 9.7 °C 7.8 °C 1015.1 hPa WNW 11.1 km/h 19.3 km/h 88% 0.0 mm 26.00 W/m2
12:59 9.6 °C 7.7 °C 1014.8 hPa WNW 13.0 km/h 35.4 km/h 88% 0.0 mm 28.00 W/m2
13:04 9.5 °C 7.8 °C 1014.8 hPa WNW 14.3 km/h 30.6 km/h 89% 0.0 mm 44.00 W/m2
13:09 9.5 °C 7.8 °C 1014.8 hPa WNW 17.7 km/h 35.4 km/h 89% 0.0 mm 56.00 W/m2
13:14 9.5 °C 7.8 °C 1014.8 hPa NW 14.3 km/h 45.1 km/h 89% 0.0 mm 51.00 W/m2
13:19 9.5 °C 7.8 °C 1014.8 hPa WNW 19.5 km/h 30.6 km/h 89% 0.0 mm 51.00 W/m2
13:24 9.5 °C 7.9 °C 1014.8 hPa NW 16.3 km/h 32.2 km/h 90% 0.0 mm 67.00 W/m2
13:29 9.5 °C 7.9 °C 1014.4 hPa WNW 14.3 km/h 35.4 km/h 90% 0.0 mm 47.00 W/m2
13:34 9.6 °C 8.0 °C 1014.8 hPa West 16.3 km/h 27.4 km/h 90% 0.0 mm 37.00 W/m2
13:39 9.6 °C 8.0 °C 1014.8 hPa WNW 32.2 km/h 32.2 km/h 90% 0.0 mm 28.00 W/m2
13:44 9.7 °C 8.1 °C 1014.8 hPa WNW 19.5 km/h 27.4 km/h 90% 0.0 mm 30.00 W/m2
13:49 9.7 °C 8.1 °C 1014.4 hPa NW 11.1 km/h 27.4 km/h 90% 0.0 mm 25.00 W/m2
13:54 9.7 °C 8.1 °C 1014.4 hPa NW 17.7 km/h 38.6 km/h 90% 0.0 mm 25.00 W/m2
13:59 9.6 °C 8.0 °C 1014.4 hPa WNW 28.8 km/h 29.0 km/h 90% 0.0 mm 26.00 W/m2
14:04 9.6 °C 8.0 °C 1014.4 hPa West 19.5 km/h 25.7 km/h 90% 0.0 mm 19.00 W/m2
14:09 9.5 °C 7.9 °C 1014.1 hPa WNW 27.4 km/h 27.4 km/h 90% 0.0 mm 21.00 W/m2
14:14 9.5 °C 7.9 °C 1014.1 hPa NW 13.0 km/h 38.6 km/h 90% 0.0 mm 18.00 W/m2
14:19 9.5 °C 8.1 °C 1014.1 hPa WNW 11.1 km/h 33.8 km/h 91% 0.0 mm 23.00 W/m2
14:24 9.5 °C 8.1 °C 1014.1 hPa WNW 27.4 km/h 37.0 km/h 91% 0.0 mm 21.00 W/m2
14:29 9.4 °C 8.0 °C 1013.8 hPa WSW 38.6 km/h 38.6 km/h 91% 0.0 mm 19.00 W/m2
14:34 9.4 °C 8.0 °C 1013.8 hPa West 14.3 km/h 30.6 km/h 91% 0.0 mm 18.00 W/m2
14:39 9.4 °C 8.0 °C 1014.1 hPa WNW 19.5 km/h 27.4 km/h 91% 0.0 mm 23.00 W/m2
14:44 9.4 °C 8.0 °C 1014.1 hPa West 9.7 km/h 32.2 km/h 91% 0.0 mm 16.00 W/m2
14:49 9.4 °C 8.0 °C 1013.8 hPa West 30.6 km/h 32.2 km/h 91% 0.0 mm 23.00 W/m2
14:54 9.4 °C 8.0 °C 1013.8 hPa WNW 19.5 km/h 32.2 km/h 91% 0.0 mm 19.00 W/m2
14:59 9.4 °C 8.0 °C 1013.8 hPa WNW 14.3 km/h 32.2 km/h 91% 0.0 mm 19.00 W/m2
15:04 9.4 °C 8.0 °C 1013.8 hPa WNW 14.3 km/h 30.6 km/h 91% 0.0 mm 9.00 W/m2
15:09 9.4 °C 8.0 °C 1013.8 hPa WNW 17.7 km/h 27.4 km/h 91% 0.0 mm 14.00 W/m2
15:14 9.4 °C 8.0 °C 1013.4 hPa NW 7.9 km/h 32.2 km/h 91% 0.0 mm 11.00 W/m2
15:19 9.4 °C 8.0 °C 1013.4 hPa NW 7.9 km/h 24.1 km/h 91% 0.0 mm 9.00 W/m2
15:24 9.4 °C 8.0 °C 1013.4 hPa WNW 17.7 km/h 24.1 km/h 91% 0.0 mm 5.00 W/m2
15:29 9.5 °C 8.1 °C 1013.4 hPa NW 9.7 km/h 25.7 km/h 91% 0.0 mm 5.00 W/m2
15:34 9.5 °C 8.1 °C 1013.4 hPa West 14.3 km/h 24.1 km/h 91% 0.0 mm 7.00 W/m2
15:39 9.5 °C 8.1 °C 1013.1 hPa West 20.9 km/h 20.9 km/h 91% 0.0 mm 7.00 W/m2
15:44 9.5 °C 8.1 °C 1013.4 hPa NW 25.9 km/h 25.7 km/h 91% 0.0 mm 5.00 W/m2
15:49 9.5 °C 8.1 °C 1013.4 hPa NW 13.0 km/h 27.4 km/h 91% 0.0 mm 5.00 W/m2
15:54 9.5 °C 8.1 °C 1013.4 hPa WNW 7.9 km/h 22.5 km/h 91% 0.0 mm 0.00 W/m2
15:59 9.6 °C 8.2 °C 1013.4 hPa WNW 13.0 km/h 24.1 km/h 91% 0.0 mm 0.00 W/m2
16:04 9.7 °C 8.3 °C 1013.4 hPa WNW 19.5 km/h 20.9 km/h 91% 0.0 mm 5.00 W/m2
16:09 9.7 °C 8.3 °C 1013.8 hPa WNW 9.7 km/h 24.1 km/h 91% 0.0 mm 0.00 W/m2
16:14 9.7 °C 8.1 °C 1013.4 hPa WNW 16.3 km/h 25.7 km/h 90% 0.0 mm 0.00 W/m2
16:19 9.7 °C 8.3 °C 1013.4 hPa WNW 29.0 km/h 29.0 km/h 91% 0.0 mm 5.00 W/m2
16:24 9.7 °C 8.1 °C 1013.4 hPa WNW 16.3 km/h 24.1 km/h 90% 0.0 mm 0.00 W/m2
16:29 9.7 °C 8.1 °C 1013.4 hPa West 35.4 km/h 35.4 km/h 90% 0.0 mm 0.00 W/m2
16:34 9.7 °C 8.1 °C 1013.4 hPa WNW 9.7 km/h 29.0 km/h 90% 0.0 mm 0.00 W/m2
16:39 9.6 °C 8.0 °C 1013.4 hPa WNW 9.7 km/h 20.9 km/h 90% 0.0 mm 0.00 W/m2
16:44 9.5 °C 7.9 °C 1013.4 hPa WNW 9.7 km/h 20.9 km/h 90% 0.0 mm 0.00 W/m2
16:49 9.5 °C 7.9 °C 1013.1 hPa WNW 11.1 km/h 22.5 km/h 90% 0.0 mm 0.00 W/m2
16:54 9.5 °C 7.9 °C 1013.4 hPa WNW 16.3 km/h 16.1 km/h 90% 0.0 mm 0.00 W/m2
16:59 9.4 °C 7.8 °C 1013.4 hPa NW 9.7 km/h 17.7 km/h 90% 0.0 mm 0.00 W/m2
17:04 9.5 °C 7.9 °C 1013.1 hPa WNW 11.1 km/h 16.1 km/h 90% 0.0 mm 0.00 W/m2
17:09 9.4 °C 7.8 °C 1013.1 hPa WNW 13.0 km/h 16.1 km/h 90% 0.0 mm 0.00 W/m2
17:14 9.4 °C 7.8 °C 1013.1 hPa WNW 13.0 km/h 19.3 km/h 90% 0.0 mm 0.00 W/m2
17:19 9.4 °C 7.8 °C 1013.4 hPa West 20.9 km/h 20.9 km/h 90% 0.0 mm 0.00 W/m2
17:24 9.5 °C 7.9 °C 1013.1 hPa WNW 14.3 km/h 20.9 km/h 90% 0.0 mm 0.00 W/m2
17:29 9.5 °C 7.8 °C 1013.4 hPa West 9.7 km/h 16.1 km/h 89% 0.0 mm 0.00 W/m2
17:34 9.5 °C 7.8 °C 1013.4 hPa NW 17.7 km/h 17.7 km/h 89% 0.0 mm 0.00 W/m2
17:39 9.6 °C 7.9 °C 1013.1 hPa West 6.4 km/h 11.3 km/h 89% 0.0 mm 0.00 W/m2
17:44 9.6 °C 7.9 °C 1013.4 hPa WNW 6.4 km/h 17.7 km/h 89% 0.0 mm 0.00 W/m2
17:49 9.7 °C 7.8 °C 1013.1 hPa NW 7.9 km/h 12.9 km/h 88% 0.0 mm 0.00 W/m2
17:54 9.8 °C 7.9 °C 1013.4 hPa WNW 6.4 km/h 11.3 km/h 88% 0.0 mm 0.00 W/m2
17:59 9.9 °C 7.8 °C 1013.4 hPa NW 1.4 km/h 11.3 km/h 87% 0.0 mm 0.00 W/m2
18:04 9.9 °C 7.8 °C 1013.4 hPa NW 13.0 km/h 19.3 km/h 87% 0.0 mm 0.00 W/m2
18:09 10.0 °C 7.8 °C 1013.4 hPa NW 9.7 km/h 17.7 km/h 86% 0.0 mm 0.00 W/m2
18:14 10.0 °C 7.8 °C 1013.4 hPa NW 7.9 km/h 12.9 km/h 86% 0.0 mm 0.00 W/m2
18:19 10.1 °C 7.9 °C 1013.4 hPa NNW 9.7 km/h 16.1 km/h 86% 0.0 mm 0.00 W/m2
18:24 10.2 °C 7.8 °C 1013.4 hPa Calm   11.3 km/h 85% 0.0 mm 0.00 W/m2
18:29 10.1 °C 7.7 °C 1013.4 hPa WNW 6.4 km/h 9.7 km/h 85% 0.0 mm 0.00 W/m2
18:34 10.2 °C 7.8 °C 1013.4 hPa Calm   8.0 km/h 85% 0.0 mm 0.00 W/m2
18:39 10.2 °C 7.8 °C 1013.4 hPa NW 4.7 km/h 8.0 km/h 85% 0.0 mm 0.00 W/m2
18:44 10.2 °C 7.6 °C 1013.8 hPa Calm   4.8 km/h 84% 0.0 mm 0.00 W/m2
18:49 10.3 °C 7.7 °C 1013.8 hPa NW 4.7 km/h 6.4 km/h 84% 0.0 mm 0.00 W/m2
18:54 10.3 °C 7.5 °C 1013.8 hPa NW 16.1 km/h 16.1 km/h 83% 0.0 mm 0.00 W/m2
18:59 10.5 °C 7.6 °C 1013.8 hPa NW 7.9 km/h 11.3 km/h 82% 0.0 mm 0.00 W/m2
19:04 10.5 °C 7.6 °C 1013.8 hPa WNW 6.4 km/h 11.3 km/h 82% 0.0 mm 0.00 W/m2
19:09 10.4 °C 7.5 °C 1013.8 hPa West 7.9 km/h 9.7 km/h 82% 0.0 mm 0.00 W/m2
19:14 10.3 °C 7.4 °C 1013.8 hPa West 7.9 km/h 11.3 km/h 82% 0.0 mm 0.00 W/m2
19:19 10.2 °C 7.3 °C 1014.1 hPa West 7.9 km/h 12.9 km/h 82% 0.0 mm 0.00 W/m2
19:24 10.2 °C 7.3 °C 1014.1 hPa WNW 7.9 km/h 12.9 km/h 82% 0.0 mm 0.00 W/m2
19:29 10.1 °C 7.3 °C 1014.1 hPa WNW 11.1 km/h 17.7 km/h 83% 0.0 mm 0.00 W/m2
19:34 10.2 °C 7.4 °C 1014.1 hPa NW 11.1 km/h 22.5 km/h 83% 0.0 mm 0.00 W/m2
19:39 10.3 °C 7.4 °C 1014.1 hPa WNW 11.1 km/h 22.5 km/h 82% 0.0 mm 0.00 W/m2
19:44 10.4 °C 7.3 °C 1014.4 hPa WNW 7.9 km/h 19.3 km/h 81% 0.0 mm 0.00 W/m2
19:49 10.4 °C 7.1 °C 1014.4 hPa WNW 9.7 km/h 17.7 km/h 80% 0.0 mm 0.00 W/m2
19:54 10.7 °C 6.8 °C 1014.4 hPa WNW 37.0 km/h 37.0 km/h 77% 0.0 mm 0.00 W/m2
19:59 11.0 °C 6.1 °C 1014.4 hPa West 14.3 km/h 29.0 km/h 72% 0.0 mm 0.00 W/m2
20:04 10.9 °C 5.8 °C 1014.4 hPa NW 17.7 km/h 33.8 km/h 71% 0.0 mm 0.00 W/m2
20:09 10.8 °C 5.8 °C 1014.4 hPa NW 35.4 km/h 35.4 km/h 71% 0.0 mm 0.00 W/m2
20:14 10.8 °C 5.5 °C 1014.4 hPa WNW 17.7 km/h 33.8 km/h 70% 0.0 mm 0.00 W/m2
20:19 10.6 °C 5.6 °C 1014.4 hPa NW 14.3 km/h 29.0 km/h 71% 0.0 mm 0.00 W/m2
20:24 10.5 °C 5.5 °C 1014.4 hPa NNW 13.0 km/h 29.0 km/h 71% 0.0 mm 0.00 W/m2
20:29 10.4 °C 5.4 °C 1014.8 hPa WNW 17.7 km/h 30.6 km/h 71% 0.0 mm 0.00 W/m2
20:34 10.4 °C 5.4 °C 1014.8 hPa North 19.5 km/h 35.4 km/h 71% 0.0 mm 0.00 W/m2
20:39 10.3 °C 5.1 °C 1014.8 hPa NW 11.1 km/h 27.4 km/h 70% 0.0 mm 0.00 W/m2
20:44 10.3 °C 5.1 °C 1014.8 hPa NNW 20.9 km/h 27.4 km/h 70% 0.0 mm 0.00 W/m2
20:49 10.4 °C 5.2 °C 1015.1 hPa NW 16.3 km/h 25.7 km/h 70% 0.0 mm 0.00 W/m2
20:54 10.2 °C 5.2 °C 1015.1 hPa NW 17.7 km/h 20.9 km/h 71% 0.0 mm 0.00 W/m2
20:59 10.2 °C 5.2 °C 1015.1 hPa WNW 19.5 km/h 35.4 km/h 71% 0.0 mm 0.00 W/m2
21:04 10.1 °C 5.1 °C 1015.1 hPa NW 13.0 km/h 32.2 km/h 71% 0.0 mm 0.00 W/m2
21:09 10.0 °C 5.0 °C 1015.1 hPa NW 13.0 km/h 30.6 km/h 71% 0.0 mm 0.00 W/m2
21:14 10.0 °C 5.2 °C 1015.1 hPa NNW 16.3 km/h 29.0 km/h 72% 0.0 mm 0.00 W/m2
21:19 9.9 °C 5.1 °C 1015.1 hPa NW 9.7 km/h 22.5 km/h 72% 0.0 mm 0.00 W/m2
21:24 9.9 °C 5.1 °C 1015.5 hPa NW 20.9 km/h 22.5 km/h 72% 0.0 mm 0.00 W/m2
21:29 9.8 °C 5.0 °C 1015.5 hPa North 29.0 km/h 29.0 km/h 72% 0.0 mm 0.00 W/m2
21:34 9.7 °C 4.9 °C 1015.8 hPa NW 13.0 km/h 22.5 km/h 72% 0.0 mm 0.00 W/m2
21:39 9.6 °C 4.8 °C 1015.8 hPa NW 6.4 km/h 24.1 km/h 72% 0.0 mm 0.00 W/m2
21:44 9.5 °C 4.9 °C 1016.1 hPa North 13.0 km/h 22.5 km/h 73% 0.0 mm 0.00 W/m2
21:49 9.5 °C 4.9 °C 1015.8 hPa NW 16.3 km/h 24.1 km/h 73% 0.0 mm 0.00 W/m2
21:54 9.5 °C 4.7 °C 1015.8 hPa NW 20.9 km/h 20.9 km/h 72% 0.0 mm 0.00 W/m2
21:59 9.5 °C 4.7 °C 1016.1 hPa NNW 4.7 km/h 24.1 km/h 72% 0.0 mm 0.00 W/m2
22:04 9.5 °C 4.7 °C 1016.1 hPa NW 6.4 km/h 19.3 km/h 72% 0.0 mm 0.00 W/m2
22:09 9.5 °C 4.7 °C 1016.1 hPa NW 17.7 km/h 22.5 km/h 72% 0.0 mm 0.00 W/m2
22:14 9.5 °C 4.9 °C 1016.1 hPa NNW 13.0 km/h 24.1 km/h 73% 0.0 mm 0.00 W/m2
22:19 9.5 °C 4.9 °C 1016.1 hPa WNW 7.9 km/h 16.1 km/h 73% 0.0 mm 0.00 W/m2
22:24 9.4 °C 4.8 °C 1016.1 hPa NW 3.2 km/h 27.4 km/h 73% 0.0 mm 0.00 W/m2
22:29 9.3 °C 4.7 °C 1016.1 hPa WNW 14.3 km/h 22.5 km/h 73% 0.0 mm 0.00 W/m2
22:34 9.2 °C 4.6 °C 1016.1 hPa NW 25.7 km/h 25.7 km/h 73% 0.0 mm 0.00 W/m2
22:39 9.2 °C 4.6 °C 1016.5 hPa WNW 4.7 km/h 17.7 km/h 73% 0.0 mm 0.00 W/m2
22:44 9.0 °C 4.6 °C 1016.5 hPa West 9.7 km/h 14.5 km/h 74% 0.0 mm 0.00 W/m2
22:49 9.0 °C 4.8 °C 1016.5 hPa WNW 13.0 km/h 19.3 km/h 75% 0.0 mm 0.00 W/m2
22:54 8.9 °C 4.7 °C 1016.5 hPa WNW 13.0 km/h 12.9 km/h 75% 0.0 mm 0.00 W/m2
22:59 9.0 °C 4.8 °C 1016.8 hPa NW 6.4 km/h 24.1 km/h 75% 0.0 mm 0.00 W/m2
23:04 8.9 °C 4.7 °C 1016.8 hPa West 13.0 km/h 12.9 km/h 75% 0.0 mm 0.00 W/m2
23:09 8.8 °C 4.4 °C 1016.8 hPa WNW 9.7 km/h 25.7 km/h 74% 0.0 mm 0.00 W/m2
23:14 8.7 °C 4.3 °C 1016.8 hPa West 4.7 km/h 16.1 km/h 74% 0.0 mm 0.00 W/m2
23:19 8.7 °C 4.3 °C 1016.8 hPa NW 3.2 km/h 14.5 km/h 74% 0.0 mm 0.00 W/m2
23:24 8.5 °C 4.1 °C 1016.8 hPa WNW 4.7 km/h 12.9 km/h 74% 0.0 mm 0.00 W/m2
23:29 8.4 °C 4.0 °C 1016.8 hPa West 11.1 km/h 12.9 km/h 74% 0.0 mm 0.00 W/m2
23:34 8.3 °C 3.9 °C 1016.8 hPa WNW 22.5 km/h 22.5 km/h 74% 0.0 mm 0.00 W/m2
23:39 8.2 °C 3.8 °C 1017.2 hPa WNW 13.0 km/h 16.1 km/h 74% 0.0 mm 0.00 W/m2
23:44 8.1 °C 3.7 °C 1016.8 hPa WNW 9.7 km/h 12.9 km/h 74% 0.0 mm 0.00 W/m2
23:49 8.1 °C 3.7 °C 1017.2 hPa West 7.9 km/h 16.1 km/h 74% 0.0 mm 0.00 W/m2
23:54 8.2 °C 3.8 °C 1017.2 hPa WNW 20.9 km/h 20.9 km/h 74% 0.0 mm 0.00 W/m2
23:59 8.2 °C 3.6 °C 1017.2 hPa WNW 7.9 km/h 12.9 km/h 73% 0.0 mm 0.00 W/m2